Weather History for El Paso, TX

Change the Weather History Date:

Wednesday, June 4, 2014

  Actual Average Record
Temperature  
Mean Temperature 93 °F 80 °F  
Max Temperature 107 °F 94 °F 107 °F (2014)
Min Temperature 78 °F 65 °F 53 °F (1989)
Degree Days  
Heating Degree Days 0 0  
Month to date heating degree days 0 0  
Since 1 June heating degree days 0 0  
Since 1 July heating degree days 2049 2474  
Cooling Degree Days 28 15  
Month to date cooling degree days 97 57  
Year to date cooling degree days 524 434  
Since 1 June cooling degree days 97 57  
Growing Degree Days 42 (Base 50)    
Moisture  
Dew Point 27 °F    
Average Humidity 15    
Maximum Humidity 25    
Minimum Humidity 5    
Precipitation  
Precipitation 0.00 in 0.02 in 0.75 in (1886)
Month to date precipitation 0.00 0.08  
Year to date precipitation 0.64 1.90  
Snow  
Snow 0.00 in - - ()
Month to date snowfall 0.0  
Since 1 June snowfall 0.0  
Since 1 July snowfall T  
Snow Depth 0.00 in    
Sea Level Pressure  
Sea Level Pressure 29.62 in    
Wind  
Wind Speed 9 mph (SW)    
Max Wind Speed 20 mph    
Max Gust Speed 30 mph    
Visibility 10 miles    
Events      
T = Trace of Precipitation, MM = Missing Value Source: NWS Daily Summary

Daily Weather History Graph

Daily Weather History Graph

Search for Another Location

Airport:

Trip Planner

Search our weather history database for the weather conditions in past years. The results will help you decide how hot, cold, wet, or windy it might be!

Date:

Astronomy

Jun. 04, 2014 Rise Set
Actual Time 6:00 AM MDT 8:07 PM MDT
Civil Twilight 5:32 AM MDT 8:35 PM MDT
Nautical Twilight 4:58 AM MDT 9:09 PM MDT
Astronomical Twilight 4:21 AM MDT 9:46 PM MDT
Moon 12:05 PM MDT (6/4) 12:23 AM MDT (6/4)
Length of Visible Light 15h 03m
Length of Day
14h 07m
Waxing Crescent, 39% of the Moon is Illuminated
Jun 4
Waxing Crescent
Jun 5
First Quarter
Jun 12
Full
Jun 19
Last Quarter
Jun 27
New

Hourly Weather History & Observations

Time (MDT) Temp. Dew Point Humidity Pressure Visibility Wind Dir Wind Speed Gust Speed Precip Events Conditions
12:51 AM 88.0 °F 30.0 °F 12% 29.60 in 10.0 mi SE 8.1 mph - N/A   Scattered Clouds
1:51 AM 82.9 °F 30.9 °F 15% 29.61 in 10.0 mi SSE 6.9 mph - N/A   Partly Cloudy
2:51 AM 84.2 °F 33.8 °F 16% 29.88 in 10.0 mi SSE 10.4 mph - N/A   Partly Cloudy
3:51 AM 82.9 °F 35.1 °F 18% 29.61 in 10.0 mi SSE 9.2 mph - N/A   Scattered Clouds
4:51 AM 80.1 °F 35.1 °F 20% 29.62 in 10.0 mi SSE 6.9 mph - N/A   Partly Cloudy
5:51 AM 79.0 °F 37.9 °F 23% 29.63 in 10.0 mi South 6.9 mph - N/A   Partly Cloudy
6:51 AM 78.1 °F 39.0 °F 25% 29.65 in 10.0 mi South 6.9 mph - N/A   Partly Cloudy
7:51 AM 81.0 °F 37.0 °F 21% 29.66 in 10.0 mi SSE 8.1 mph - N/A   Partly Cloudy
8:51 AM 84.9 °F 33.1 °F 16% 29.67 in 10.0 mi South 12.7 mph - N/A   Partly Cloudy
9:51 AM 90.0 °F 30.0 °F 12% 29.67 in 10.0 mi South 6.9 mph - N/A   Partly Cloudy
10:51 AM 95.0 °F 30.0 °F 10% 29.65 in 10.0 mi Variable 5.8 mph - N/A   Partly Cloudy
11:51 AM 99.0 °F 27.0 °F 8% 29.65 in 10.0 mi Variable 5.8 mph - N/A   Partly Cloudy
12:51 PM 100.9 °F 26.1 °F 7% 29.63 in 10.0 mi Variable 6.9 mph 16.1 mph N/A   Partly Cloudy
1:51 PM 104.0 °F 27.0 °F 7% 29.62 in 10.0 mi West 8.1 mph - N/A   Partly Cloudy
2:51 PM 106.0 °F 25.0 °F 6% 29.58 in 10.0 mi SSW 8.1 mph - N/A   Partly Cloudy
3:51 PM 105.8 °F 24.8 °F 6% 29.83 in 10.0 mi WNW 13.8 mph 18.4 mph N/A   Partly Cloudy
4:51 PM 106.0 °F 24.1 °F 6% 29.55 in 10.0 mi West 11.5 mph - N/A   Partly Cloudy
5:51 PM 105.1 °F 23.0 °F 6% 29.54 in 10.0 mi West 11.5 mph - N/A   Partly Cloudy
6:51 PM 104.0 °F 21.9 °F 5% 29.53 in 10.0 mi NW 13.8 mph - N/A   Partly Cloudy
7:51 PM 100.9 °F 21.0 °F 6% 29.55 in 10.0 mi West 10.4 mph - N/A   Partly Cloudy
8:51 PM 98.1 °F 21.0 °F 6% 29.55 in 10.0 mi NW 9.2 mph - N/A   Partly Cloudy
9:51 PM 93.9 °F 18.0 °F 6% 29.56 in 10.0 mi North 6.9 mph - N/A   Partly Cloudy
10:51 PM 91.9 °F 17.1 °F 6% 29.56 in 10.0 mi North 5.8 mph - N/A   Clear
11:51 PM 93.0 °F 12.9 °F 5% 29.56 in 10.0 mi NNW 9.2 mph - N/A   Clear